Location: Klickitat County Star Party
(45.8642°N, 120.6771°W)
Time: 16:10:23
(UTC-07:00)

SO-50 - Pass Details

Date: 30 May 2019
Orbit: 586 x 700 km, 64.6° (Epoch: 18 June)

Event Time Altitude Azimuth Distance (km) Brightness Sun altitude
Rises 00:35:45 0° 327° (NNW) 3,090 ? -22.2°
Reaches altitude 10° 00:38:23 10° 338° (NNW) 2,163 ? -22.2°
Maximum altitude 00:42:45 31° 40° (NE) 1,214 ? -22.3°
Enters shadow 00:46:36 12° 100° (E) 1,974 ? -22.3°
